Timeline UpdatesTrip UpdatesNews PostsPvt PostsTravel TipsAdmin PostsConv PostsFollowed PostsChat RequestsBlog PostsPNR Posts

Disclaimer
Search
 
 
Sat Sep 20, 2014 07:25:00 ISTHomeTrainsΣChainsAtlasPNRForumGalleryNewsFAQTripsMembersLoginFeedback
No Recent News for this Train
Other Trains in the News **new
Latest...
FC Coach will be Removed From 03rd Sep 14
Wed Aug 27, 2014 (09:43PM)
⇐ Return Journey: Train# 16630

16629/Malabar Express

Time-Table HAS CHANGED.
Sep 11 (7:03AM)
Change Departure Station:
Change Arrival Station:
Post a Train Travel TipPost a Train Travel Tip **new
Post a Comment/Question/Picture/VideoPost a Comment/Question/Picture/Video
Pantry/Catering
✕ NO Pantry Car
✓ Catering Avbl
RSA - Rake Sharing
16603/ 16604/ 12601/ 12602/ 16627/ 16628/ has RSA . By Srivatsa Udupa Entry# 655758
Rake/Coach Composition
Loco-SLR-GS-GS-S11-S10-S9-S8-S7-S6-S5-S4-S3-S2-S1-A1-B1-B2-B3-GS-GS-GS-SLR; .; De-reserved : Trivandrum-Kottayam S6; Cannanore-Mangalore S4,S5
Loco
ED WAP-4 from Trivandrum to Shoranur WDM-3A/3D/GOC WDG4 (ERS/ED/GOC Shed).
News    PNR    Forum    Time-Table    Availability    Fare Chart    Map    Arr/Dep History    Trips    Gallery    ΣChains    X/O    Timeline    
Travel Time: 3h 28m    9 halts    Distance: 136 km    Avg Speed: 39 km/hr
Type: Mail/Express
Zone: SR/Southern
Departs @ 20:19
Platform# ???
SMTWTFS
Sasthamkotta/STKT 
Arrives @ 23:47
Platform# 1
SMTWTFS
Ernakulam Town (North)/ERN 

9 halts. 21 intermediate Stations between Sasthamkotta and Ernakulam Town (North)

Show ALL intermediate Stations  Show Old Time-Table

#CodeStation NameX/OArrivesAvgDepartsAvgHaltPFDay#KmSpeedElevZoneAddress
1TVCTrivandrum Central (5)  -18:30-41-84.15712mSRThiruvananthapuram 695001, Kerala
2KZKKazhakkuttam (3)X18:41 18:44-18:42 18:45-1m--1-70.8-20mSRKulathoor ► Kazhakootam Road Kazhakootam PO Thiruvananthapuram, Kerala
3MQUMurukkampuzha (2)  18:47-18:48-1m--1-62.86418mSRMurukkumpuzha, Kerala
4CRYChirayinkeezhu (2)X  18:55-18:56-1m--1-55.34619mSRChirayinkeezhu, Kerala
5KVUKadakavur (3)  19:00-19:01-1m--1-52.35520mSRKadakkavoor, Kerala
6VAKVarkala Sivagiri (3)  19:11-19:12-1m--1-43.15652mSREdava Kappil Road, Kerala
7PVUParavur (3)X  19:24-19:25-1m--1-31.82518mSRParavoor, Kerala
8QLNKollam Junction (6)  19:50 19:55-19:55 20:00-5m21-19.46516mSRKollam 0474-2746194, Kerala
9STKTSasthamkotta (2)»X  20:14 20:18-20:15 20:19-1m--10.0510mSRKollam Dist, Kerala
10KPYKarunagappalli (2)X  20:24 20:28-20:25 20:29-1m--17.64312mSRKollam Dist, Kerala
11KYJKayamkulam Junction (5)X  20:48-20:50-2m--121.45811mSRAlappuzha Ph;0479-2442042, Kerala
12MVLKMavelikara (3)  20:59 20:58-21:00-1 2m2129.05413mSRMavelikkara Ph: 0479-2302249, Kerala
13CNGRChengannur (3)  21:19 21:14-21:20 21:15-1m3141.6606mSRPh: 0479-2452340, Kerala
14TRVLTiruvalla (2)  21:29 21:24-21:30 21:25-1m--150.65227mSRPh: 0469-2601314, Kerala
15CGYChanganassery (3)  21:39 21:34-21:40 21:35-1m--158.54711mSRPh: 0481- 2420108, Kerala
16KTYMKottayam (3)  22:10 21:58-22:15 22:00-5 2m--176.36515mSRTel: 0481 2563535, Kerala
17PVRDPiravom Road  22:49 22:29-22:50 22:30-1m--1107.65412mSRKottayam, Kerala
18TRTRThrippunithura (2)  23:19 22:51-23:20 22:52-1m--1126.6115mSRErnakulam, Kerala
19ERNErnakulam Town (North) (2)•  23:53 23:47-23:58 23:50-5 3m11136.3449mSRTel: 0484 2395198, Kerala
20AWYAluva (3)X  00:17 00:13-00:20 00:15-3 2m32153.15512mSRPh: 0484-2624141, Kerala
21AFKAngamaly for Kalady (3)X  00:31 00:25-00:32 00:26-1m--2162.47016mSRPhone: 0484-2452340, Kerala
22CKIChalakkudy (3)  00:49 00:39-00:50 00:40-1m22177.6439mSRPh: 0480- 2701368, Kerala
23IJKIrinjalakkuda (2)X  00:59 00:49-01:00 00:50-1m--2184.03418mSRKalletumkara, Kerala
24TCRThrissur (4)O  01:27 01:32-01:30 01:35-3m22207.7256mSRThrissur Tel: 0487 2423150, Kerala
25SRRShoranur Junction (7)  02:45 02:55-02:55 03:05-10m--2240.74626mSRShoranur ph.no 0466-2222913, Kerala
26PTBPattambi (2)  03:09 03:20-03:10 03:21-1m--2252.26521mSRPattambi, Kerala
27KTUKuttippuram (2)X  03:29 03:38-03:30 03:40-1 2m--2270.75617mSRKuttippuram, Kerala
28TIRTirur (3)  03:47 03:56-03:48 03:58-1 2m--2285.8609mSRTel: 0494 2422240, Kerala
29TATanur (3)  03:57 04:06-03:58 04:07-1m--2293.86111mSRMalappuram, Kerala
30PGIParappangadi (2)  04:07 04:15-04:08 04:16-1m--2301.95719mSRParappanangadi, Kerala
31FKFerok (2)  04:24 04:32-04:25 04:33-1m--2317.02719mSRFeroke, Kerala
32CLTKozhikode Main (4)  04:45 04:55-04:50 05:00-5m--2327.07011mSRCalicut Tel: 0495 2701234, Kerala
33QLDKoyilandy (3)  05:14 05:21-05:15 05:22-1m--2351.37711mSRQuilandi, Kerala
34BDJVadakara (2)X  05:34 05:39-05:35 05:41-1 2m22373.37711mSRCalicut / Station Ph No : 0496-2524254, Kerala
35MAHEMahe (2)X  05:44 05:51-05:45 05:52-1m--2386.16216mSRMahe, Puducherry
36TLYThalassery (2)X  05:54 06:01-05:55 06:03-1 2m12395.4349mSRKannur, Kerala
37CANKannur Main (4)  06:35 06:40-06:40 06:45-5m12416.14614mSRKannur Tel: 0497 2705555, Kerala
38VAPMValapattanam (2)  06:49 06:54-06:50 06:55-1m--2423.0658mSRKannur District, Kerala
39KPQKannapuram (2)  06:57 07:02-06:58 07:03-1m12430.5569mSRKannur District, Kerala
40PAZPayangadi (2)  07:06 07:11-07:07 07:12-1m12438.08912mSRKannur District, Kerala
41ELMEzhimalaX  07:13 07:18-07:14 07:19-1m--2446.93315mSRKannur District, Kerala
42PAYPayyanur (3)  07:20 07:24-07:21 07:26-1 2m--2449.7620mSRKannur District, Kerala
43TKQTrikkarippurX  07:27 07:32-07:28 07:33-1m--2455.97313mSRKasargod district, Kerala
44CHVCharvattur (3)XO  07:35 07:40-07:36 07:41-1m--2464.52914mSRKasaragod district, Kerala
45NLENileshwar (2)  07:43 07:52-07:44 07:53-1m--2469.75612mSRNileswaram, Kerala
46KZEKanhangad (3)X  07:54 08:03-07:55 08:05-1 2m--2479.06615mSRKanhangad, Kerala
47BFRBekal Fort (2)X  08:04 08:13-08:05 08:14-1m--2487.84211mSRPallikere, Kerala
48KQKKottikkulam (2)  08:12 08:21-08:13 08:22-1m--2492.63625mSRBekal, Kerala
49KGQKasaragod (3)X  08:29 08:38-08:30 08:40-1 2m--2502.18118mSRTel: 04994 220800, Kerala
50KMQKumbala (2)  08:39 08:49-08:40 08:50-1m--2514.39823mSRKumbla, Kerala
51UAAUppala (2)  08:46 08:56-08:47 08:57-1m--2524.14616mSRKasaragod District, Kerala
52MJSManjeshwar (3)XO  08:56 09:06-08:57 09:07-1m--2531.08912mSRManjeshwar, Kerala
53ULLUllal (2)O  09:04 09:14-09:05 09:15-1m--2541.3826mSRSomeshwar, Karnataka
54MAQMangalore Central (4)  10:05----2547.8-14mSRMangalore 575001, Karnataka
Scroll to Top
Scroll to Bottom